Wind_Speed
16 23 25 23 21 19 17 16 14 12 12 13 12 11 12 12 12 13 14 15 15 15 14 13 13 13 14 16 17 16 17 17 14 15 17 19 20 21 21 22 23 24 25 26 28 28 29 31 33 35 35 36 38 39 40 41 42 42 43 44 45 45 46 48 49 50 51 51 53 55 56 59 59 58 57 58 64 68 69 69 68 66 65 65 66 68 71 72
17 24 26 24 22 20 17 15 14 13 13 13 13 12 12 13 13 14 16 16 15 14 13 13 13 13 15 16 16 15 16 15 13 15 18 19 20 20 21 21 22 23 25 27 28 29 31 33 35 35 36 37 39 39 40 41 42 43 44 45 46 47 47 48 50 51 51 52 54 56 57 59 60 59 58 60 65 70 72 74 75 73 71 69 67 67 68 70
18 23 26 25 22 20 18 16 15 14 14 14 13 13 14 14 15 16 17 16 14 13 13 13 13 14 14 15 15 14 14 13 12 15 18 18 19 20 20 21 23 24 26 28 29 30 32 34 35 36 36 37 39 40 40 41 42 43 44 45 46 47 49 49 51 51 51 54 55 57 58 59 61 60 60 61 64 68 69 72 75 77 76 74 71 68 67 67
19 22 23 23 21 20 19 17 15 16 15 15 14 14 15 15 17 17 16 15 14 13 12 13 13 14 13 14 13 12 13 13 13 16 17 17 18 19 20 22 24 25 27 28 29 30 32 33 35 35 36 37 38 40 40 41 42 43 44 44 46 47 49 50 51 51 52 55 56 57 58 59 62 62 61 63 64 66 68 70 73 76 76 75 72 69 67 65
20 21 21 21 20 18 19 19 18 17 16 15 15 15 16 17 18 17 16 14 13 13 12 13 13 13 13 13 12 12 13 13 14 15 16 17 18 19 21 23 25 26 28 28 29 29 31 33 34 35 36 38 39 40 41 42 42 42 43 44 46 47 49 49 50 50 51 54 56 57 57 58 63 64 63 65 66 67 69 71 73 76 76 75 71 68 65 64
21 21 21 21 20 19 20 21 19 18 17 16 16 16 17 18 18 17 15 14 13 13 12 13 13 12 12 12 11 11 13 13 14 15 16 17 18 20 22 23 25 26 26 27 28 30 31 32 33 35 36 38 39 40 41 42 43 43 43 44 45 47 49 49 49 50 52 54 56 58 58 58 64 65 65 67 67 69 70 72 75 77 77 74 70 66 63 61
23 23 22 20 20 22 23 22 19 18 18 17 17 18 19 19 18 16 15 13 13 12 12 12 12 11 11 12 11 10 12 13 14 15 16 18 18 20 22 23 24 25 26 27 29 30 31 32 34 35 36 38 39 40 40 41 41 42 42 43 45 47 48 49 49 51 53 55 57 59 59 59 63 65 65 67 68 69 71 73 75 76 76 73 69 64 61 59
24 25 22 21 23 25 23 21 19 19 18 18 19 20 20 19 17 16 14 13 13 12 12 11 11 10 10 12 10 9 12 13 14 15 16 17 18 20 22 23 24 26 27 28 28 29 30 31 33 35 36 38 38 39 40 40 40 41 43 44 45 47 48 49 50 52 55 57 58 61 60 60 64 65 65 67 69 70 71 72 74 76 76 73 68 63 60 57
25 25 23 24 25 24 22 21 20 19 19 19 21 21 20 18 17 15 14 13 13 12 11 10 11 11 10 11 10 9 12 13 14 15 16 17 18 20 22 23 24 26 27 27 28 29 30 31 33 34 36 37 37 39 40 40 40 42 43 44 46 47 49 49 49 53 57 58 60 62 62 62 65 66 66 68 69 70 71 72 73 74 74 72 68 63 59 57
25 26 27 27 25 22 21 21 21 20 21 21 22 21 19 18 16 15 14 13 13 11 10 10 12 12 10 9 10 10 11 13 14 15 16 17 18 20 22 23 24 26 27 27 28 29 30 31 33 34 35 36 37 38 39 39 40 41 42 44 46 47 48 49 50 54 58 59 60 64 63 62 66 67 68 69 69 70 70 70 71 72 73 72 69 63 59 57
26 29 29 27 25 22 21 21 22 22 23 23 22 20 18 17 15 14 14 13 12 10 10 11 13 12 10 8 9 10 11 13 13 14 15 16 18 19 21 23 24 26 27 27 28 28 29 30 33 34 34 35 37 38 38 38 39 40 42 44 46 48 48 50 53 54 57 60 60 63 64 64 67 68 68 68 69 69 69 70 71 71 72 72 70 66 61 57
30 30 29 26 24 23 22 23 23 24 24 23 22 20 18 16 15 14 14 13 11 10 11 12 13 12 9 8 8 10 12 12 13 14 15 16 18 19 21 22 23 25 26 27 27 28 29 31 33 33 34 37 38 38 38 38 38 40 42 44 46 49 50 52 54 56 58 60 60 61 63 64 66 66 67 68 68 69 71 72 72 73 72 72 71 68 64 60
32 30 27 25 25 24 24 24 25 25 24 23 21 18 17 15 15 14 13 12 11 11 12 13 12 10 7 7 8 10 11 12 13 14 15 16 18 20 20 22 23 24 25 26 27 28 29 30 32 34 36 38 38 38 37 37 38 40 42 44 46 49 52 53 55 57 58 59 59 60 61 63 64 65 67 69 70 72 74 75 76 75 74 72 71 69 66 62
30 28 26 25 25 25 25 26 25 24 23 21 19 17 16 15 14 14 12 11 11 12 13 12 11 8 6 6 8 10 11 12 13 14 15 17 18 19 21 22 23 23 24 25 26 28 29 30 32 35 37 38 37 36 35 36 37 40 42 44 47 49 51 52 54 56 56 57 59 61 62 63 65 66 69 71 73 76 77 78 78 79 79 78 75 72 68 65
28 26 26 26 26 26 26 26 25 23 22 20 18 17 16 15 14 13 13 12 13 13 13 11 9 6 5 7 9 10 10 11 12 14 15 17 17 19 20 21 22 23 24 24 26 28 30 31 33 35 36 38 38 36 36 37 39 41 42 44 47 48 49 51 53 54 56 57 59 62 63 64 67 69 71 74 76 77 79 80 80 81 82 82 80 77 72 67
26 25 26 26 26 26 26 25 24 22 21 19 18 17 17 16 15 14 14 14 14 14 12 10 7 5 5 7 8 9 10 11 13 15 16 17 18 19 20 21 21 22 22 24 25 27 29 30 31 33 35 37 37 38 39 39 40 41 42 43 45 48 50 51 53 55 57 58 59 63 64 66 70 72 73 75 77 78 79 80 82 83 84 83 82 79 75 69
27 27 26 26 26 26 26 24 23 21 20 18 17 17 17 16 14 14 15 15 14 13 11 9 6 5 6 6 7 9 12 13 14 15 15 17 18 19 19 20 21 21 22 24 25 26 28 29 31 33 34 34 36 38 39 40 41 42 42 43 45 49 51 52 54 56 59 61 62 64 65 67 71 73 73 74 76 78 79 80 82 84 84 83 82 80 77 70
28 27 26 26 26 26 25 24 22 20 19 18 17 17 16 15 14 15 15 15 13 11 9 7 6 6 5 6 8 12 13 14 14 14 15 16 18 18 19 20 21 22 23 24 25 27 29 30 32 33 32 33 35 37 39 40 42 43 44 45 46 49 52 54 56 58 59 62 63 64 65 67 70 73 73 74 75 77 79 80 81 82 83 83 82 81 78 72
28 26 26 27 26 26 25 23 21 20 19 18 18 17 15 14 15 16 15 14 12 10 8 6 5 6 6 8 11 12 12 13 13 13 15 17 18 19 21 22 23 23 24 25 26 27 28 30 31 31 32 35 37 39 40 41 42 43 45 47 48 49 53 55 56 58 59 61 61 64 66 67 69 72 73 73 74 77 78 79 80 82 83 83 83 80 76 72
27 25 26 27 26 25 24 22 21 19 19 19 19 17 15 14 15 16 15 13 10 8 6 5 5 7 8 9 10 11 13 13 13 14 16 17 19 21 22 23 24 25 25 26 27 28 29 31 31 32 35 38 39 40 40 40 42 43 44 47 49 50 53 56 57 58 60 60 60 64 67 67 69 71 73 73 74 76 78 79 80 81 82 83 82 78 76 73
26 26 26 26 26 25 23 22 20 19 19 19 19 18 15 14 14 14 13 12 9 7 5 5 6 8 9 10 10 11 12 12 13 15 17 19 21 22 23 24 25 26 26 26 27 28 29 31 33 35 37 37 37 38 39 40 41 43 44 46 50 52 53 54 56 58 59 59 60 64 67 67 69 71 72 73 74 75 76 78 79 81 82 82 80 79 78 76
26 27 26 26 26 24 22 21 20 20 19 19 19 18 16 15 14 12 11 9 8 6 4 5 7 8 9 9 11 11 12 12 14 17 18 20 21 22 23 24 26 26 27 28 28 30 31 33 35 37 37 37 37 37 39 40 41 43 45 47 49 53 53 54 55 57 58 59 61 65 67 68 70 70 71 73 73 74 75 77 78 79 80 79 80 81 80 77
26 27 26 25 24 23 22 21 20 20 19 19 19 18 16 16 13 11 9 7 6 5 4 6 8 8 9 10 11 12 14 15 16 18 19 20 21 22 23 24 25 27 28 30 31 32 34 35 37 37 38 38 38 37 38 39 40 43 46 47 49 52 54 55 55 57 59 61 64 66 67 69 70 70 71 72 72 72 73 74 76 78 79 80 83 84 81 77
27 27 26 24 23 22 21 21 20 19 19 19 19 18 16 15 12 10 8 5 4 3 4 6 7 8 10 11 12 14 15 16 16 17 19 20 21 22 23 24 25 27 28 29 31 33 34 36 37 38 38 39 38 38 38 39 41 43 45 48 50 52 53 55 56 58 60 63 66 67 68 70 70 70 70 71 72 72 71 73 75 77 80 83 84 83 81 78
27 27 25 24 21 21 21 20 20 19 19 19 19 18 16 14 11 9 6 4 3 2 4 5 7 9 10 12 14 15 16 17 17 18 19 20 21 23 24 25 26 27 28 30 33 34 35 37 38 38 39 40 40 39 39 40 41 43 45 48 50 52 53 54 57 59 61 63 65 68 70 69 69 70 70 71 72 72 72 72 74 77 81 83 83 82 80 78
27 26 25 23 20 20 20 20 20 19 19 19 19 17 15 13 10 8 6 3 2 2 4 5 7 9 11 13 15 16 17 18 18 18 20 21 22 24 25 27 27 29 31 33 35 36 37 38 38 39 39 40 41 40 40 40 41 42 45 47 50 51 52 53 57 60 62 63 64 68 70 68 68 70 69 70 71 71 71 72 75 78 80 81 81 81 80 78
26 26 24 22 20 20 20 20 19 19 19 19 18 17 14 12 10 8 5 3 1 2 4 6 7 10 12 14 16 17 18 19 19 20 22 23 24 25 26 28 29 31 33 35 36 37 38 39 39 40 40 41 42 41 41 41 42 42 44 46 49 51 51 52 55 60 62 62 64 66 68 66 66 69 70 69 69 69 71 72 74 76 76 78 80 81 80 78
26 25 23 21 20 20 20 20 19 19 19 19 18 16 14 12 10 7 5 3 1 2 4 6 8 10 13 15 17 19 20 21 21 23 24 24 25 26 28 29 31 32 34 36 36 37 38 39 40 41 42 42 42 43 42 42 43 43 44 48 51 52 52 52 54 58 61 63 64 64 65 66 66 69 71 69 68 69 70 71 72 73 74 76 78 80 81 80
25 24 22 20 20 20 19 19 19 19 19 18 17 15 14 12 10 7 5 3 1 3 5 6 9 11 14 16 18 20 21 23 24 25 25 26 27 28 29 30 32 33 33 34 35 37 38 40 41 42 43 43 44 44 43 43 43 44 46 49 51 52 52 52 54 58 60 63 64 62 64 66 67 69 70 68 68 68 68 69 70 71 73 75 77 79 80 81
25 23 20 19 19 19 19 19 18 19 18 17 16 15 13 12 9 7 5 3 3 4 5 7 9 12 14 16 19 21 22 24 25 26 27 28 29 30 31 31 31 31 31 32 35 38 39 40 41 42 44 45 46 46 45 45 45 46 48 50 51 52 53 54 56 57 58 60 61 61 62 64 67 69 68 67 66 66 67 67 67 69 71 73 75 78 80 80
23 21 20 19 19 19 19 19 18 18 17 17 15 14 13 11 9 7 5 4 4 5 6 8 10 12 15 17 19 21 23 25 27 28 29 30 30 31 31 31 31 31 33 35 37 39 40 40 41 42 44 46 47 47 47 47 46 47 49 50 52 53 54 55 56 57 57 57 59 61 61 63 65 66 67 67 66 66 66 66 67 68 69 71 73 76 78 79
22 20 19 19 18 19 19 18 18 17 17 16 15 14 12 10 9 7 7 6 6 6 7 9 11 13 15 18 20 22 24 25 27 28 29 30 31 31 31 31 32 34 36 38 40 40 41 42 43 44 45 46 48 49 49 48 48 47 48 50 52 54 56 57 57 57 57 56 58 61 62 63 63 64 66 67 67 67 66 66 68 68 69 70 72 74 77 78
21 19 19 18 18 18 18 18 17 17 17 15 14 13 11 10 9 8 8 7 7 7 8 9 11 13 15 18 20 22 23 25 27 28 29 30 31 32 32 33 34 36 37 39 40 42 42 43 44 45 46 48 49 50 51 50 49 48 49 51 54 56 58 60 60 59 58 57 58 61 62 63 62 62 64 66 67 67 66 67 69 69 69 70 72 74 76 77
19 18 18 17 17 17 17 17 17 17 16 15 13 12 11 9 9 8 7 7 7 8 9 10 12 14 16 18 20 22 23 25 27 28 29 31 32 33 34 35 36 36 37 38 40 42 44 44 45 46 48 49 49 49 51 52 51 50 50 51 53 55 58 60 61 61 61 59 59 62 63 62 62 62 63 66 67 66 66 68 69 69 69 70 72 73 74 76
18 18 17 17 17 17 17 17 17 17 16 14 13 11 10 9 9 8 8 8 8 9 11 12 13 15 17 19 20 22 23 25 27 29 30 32 33 33 35 35 36 36 37 38 39 41 43 44 45 46 47 48 48 48 50 52 52 51 50 50 52 53 56 59 60 62 63 61 60 62 63 63 63 63 63 65 66 65 67 68 68 68 68 68 69 71 73 75
17 17 16 16 16 17 16 16 17 16 15 14 13 12 11 10 9 9 9 9 9 10 12 13 14 16 18 19 21 22 24 25 27 29 30 32 33 34 36 36 37 37 37 38 39 40 42 44 45 45 46 47 47 47 49 51 51 51 50 51 52 53 55 58 61 63 64 63 61 61 62 63 62 63 64 65 65 66 67 68 67 67 68 68 68 70 71 73
16 16 15 15 16 16 16 16 16 16 15 14 13 12 11 10 10 10 10 10 11 12 13 15 16 17 18 20 21 22 24 26 28 29 31 32 34 35 36 37 38 38 38 39 40 41 42 44 44 45 46 47 47 47 48 49 50 51 51 51 52 52 54 58 61 63 64 63 62 59 61 63 63 63 64 63 64 66 67 67 66 66 67 67 67 69 70 72
16 15 15 15 15 15 15 16 16 15 15 14 13 12 12 11 11 11 11 12 12 13 15 16 17 18 19 20 21 22 24 26 28 30 32 33 35 36 37 38 39 39 40 40 40 42 43 45 45 46 47 47 47 47 47 48 50 52 51 50 51 53 54 56 59 63 64 64 63 60 60 63 63 62 62 62 63 65 66 65 65 66 67 67 66 67 68 70
15 15 14 14 14 14 14 15 15 14 14 13 13 13 12 12 13 12 13 13 14 15 16 17 18 19 20 21 22 23 25 27 29 31 33 35 36 37 38 39 40 40 40 41 42 43 44 45 46 47 48 48 47 47 48 49 50 51 52 51 51 53 54 55 57 61 63 63 64 61 59 62 63 62 62 62 63 64 65 64 65 66 67 67 66 66 67 69
14 14 13 13 13 13 13 13 13 13 13 13 13 13 13 13 13 14 14 15 16 17 18 19 19 20 21 22 23 24 26 27 29 32 34 36 37 38 39 40 41 41 41 42 43 43 44 45 47 47 48 49 49 47 48 49 49 50 52 51 51 52 54 56 57 59 61 62 63 63 60 61 63 63 63 63 64 64 65 64 65 66 67 67 66 66 67 68
13 13 12 12 12 12 13 13 13 12 12 13 13 13 14 14 14 15 16 17 18 19 19 20 21 21 22 22 23 25 26 28 30 32 34 36 37 39 40 41 41 42 42 43 43 44 44 46 47 48 47 48 49 48 47 48 48 49 51 50 51 52 54 57 58 58 58 59 61 62 61 60 63 63 63 64 64 64 64 64 65 66 66 67 66 66 66 67
12 12 11 11 11 12 12 12 12 12 12 13 13 13 14 14 15 15 16 17 19 19 20 21 21 22 22 23 24 25 27 28 30 32 34 36 38 39 40 42 42 43 43 43 44 44 45 46 47 49 48 48 48 49 48 49 49 49 49 49 49 52 54 57 58 57 56 56 59 61 60 60 62 63 63 63 64 64 64 64 65 65 66 66 66 66 66 66
10 10 10 10 11 11 12 12 12 13 13 14 14 14 14 15 15 16 17 18 19 20 21 21 22 22 23 24 25 26 27 29 31 33 35 36 38 39 41 42 43 43 43 44 44 44 45 46 48 50 50 49 49 50 50 50 51 51 49 47 49 52 55 56 57 57 55 54 57 60 59 58 61 63 63 64 64 64 64 64 65 65 65 65 66 66 65 66
9 10 9 9 10 11 12 12 13 14 14 15 15 16 16 16 17 17 17 18 19 20 21 22 23 23 24 24 25 27 28 30 32 33 35 36 38 39 40 42 43 43 44 44 44 44 45 46 48 51 52 51 51 52 52 51 52 52 50 48 48 52 54 55 56 56 54 54 55 59 59 58 59 62 63 63 63 63 64 65 65 65 65 64 65 66 65 65
8 9 8 8 10 11 12 13 14 15 15 16 17 17 18 19 19 19 19 20 20 21 22 23 24 24 25 25 26 28 29 31 33 34 35 36 38 39 40 41 42 43 44 44 44 44 44 44 45 48 51 52 51 51 52 51 51 51 50 48 48 50 52 53 54 55 54 54 54 57 59 59 58 61 62 63 63 63 64 65 65 64 64 64 64 65 65 65
8 8 8 9 9 10 11 12 13 14 15 16 17 18 19 19 20 21 21 22 22 23 23 24 25 25 26 27 28 29 30 32 33 34 36 37 38 39 40 41 42 43 44 44 45 44 43 43 42 43 47 49 47 48 49 49 50 49 48 47 47 49 50 51 53 54 54 54 53 55 60 61 60 61 62 63 64 64 64 65 64 64 64 64 64 65 65 65
7 7 8 8 9 10 10 11 12 13 14 15 16 17 18 19 21 22 23 23 24 24 25 25 26 27 27 28 29 30 31 32 34 35 36 38 39 40 40 41 42 43 44 44 45 45 44 43 42 41 44 46 45 45 47 47 48 47 46 46 46 47 48 49 51 53 54 54 55 55 58 61 62 62 63 64 65 65 65 64 64 64 64 64 64 64 65 64
7 7 8 8 9 9 10 11 11 12 13 13 14 15 17 18 20 22 23 24 25 25 26 27 28 28 29 30 30 31 32 33 34 36 37 38 39 40 40 41 42 43 44 44 46 46 44 45 44 41 41 44 44 44 45 45 45 45 45 45 46 46 47 48 51 53 53 54 56 57 57 60 62 62 63 65 66 66 65 65 65 65 65 65 64 65 65 64
7 8 8 9 9 10 10 11 11 11 11 12 12 13 15 16 18 20 21 23 24 25 26 27 28 29 31 31 32 33 33 34 35 36 37 38 39 40 41 42 42 43 44 44 46 47 46 46 46 43 41 43 43 42 42 43 43 44 45 46 46 46 47 50 52 53 53 54 56 58 58 60 62 63 63 64 65 66 66 66 66 66 66 66 65 65 65 64
8 9 10 10 11 11 12 12 12 12 12 13 14 15 16 16 17 18 20 21 23 25 26 27 29 30 31 32 33 34 34 35 36 37 38 39 40 41 41 42 43 44 45 45 46 48 48 47 47 46 43 43 44 43 44 45 45 45 45 46 47 47 48 50 52 53 54 55 56 58 59 60 62 63 64 64 65 66 67 67 67 67 66 66 65 65 65 65
10 11 11 12 14 14 14 15 15 16 16 17 18 18 18 18 18 19 20 21 22 24 25 27 28 30 31 33 34 35 35 36 37 38 39 40 40 42 42 43 44 45 45 46 46 48 49 48 48 49 46 45 46 46 45 46 46 45 45 46 48 49 48 49 51 53 54 56 57 59 60 61 62 64 64 65 66 66 67 68 68 67 67 67 66 65 65 65
11 12 13 14 15 16 16 17 18 19 20 21 21 21 21 21 21 21 22 22 23 24 25 26 28 30 32 33 34 35 36 37 38 39 40 41 41 42 44 44 45 46 46 47 47 48 49 49 49 50 49 47 47 46 45 45 46 46 47 48 49 49 48 48 51 53 54 56 58 59 60 61 62 64 65 65 66 66 67 67 68 68 67 67 66 65 65 65
Wind_Direction
178 175 171 169 167 165 165 162 158 154 155 153 150 149 142 134 130 127 125 123 122 119 117 112 106 101 99 98 93 85 79 77 68 63 59 53 49 46 42 38 35 32 28 25 24 20 15 13 13 12 9 7 6 5 3 2 0 358 357 356 355 357 356 354 353 352 350 350 349 349 349 348 348 348 342 335 333 335 332 328 324 318 311 305 301 297 295 294
178 177 174 173 171 168 169 167 163 161 157 152 148 147 141 135 131 128 125 125 124 121 117 112 107 105 104 99 91 83 79 77 66 57 55 51 47 43 39 35 31 28 24 23 21 16 13 13 12 10 7 6 5 3 2 0 359 358 357 356 355 355 355 354 352 352 350 350 349 349 351 349 349 349 344 338 335 336 333 329 326 320 313 308 304 299 296 294
178 177 176 175 174 172 171 170 167 162 156 149 148 147 142 137 132 129 128 129 127 124 120 115 110 107 106 98 91 84 81 78 63 55 53 48 44 40 36 31 28 25 22 21 18 14 12 12 10 8 6 5 3 2 1 359 359 358 357 356 355 354 354 354 352 352 351 350 350 350 352 350 349 349 346 341 338 336 332 328 325 320 315 312 308 303 299 295
177 177 176 174 175 175 170 168 166 159 152 148 150 148 142 136 132 131 130 131 129 127 124 118 113 109 106 99 92 86 82 76 63 55 51 46 41 37 32 28 25 23 21 19 16 13 12 11 9 7 5 4 3 1 0 0 360 358 358 356 355 355 354 354 352 352 352 351 351 351 353 351 349 350 347 344 341 338 333 328 324 320 317 314 311 307 302 298
173 173 172 169 172 173 164 161 159 153 149 149 152 147 140 135 133 133 133 133 131 129 126 120 114 110 106 97 91 85 80 74 62 54 48 42 37 32 29 26 23 21 19 16 13 11 11 10 8 6 5 4 2 1 1 1 0 359 358 356 356 355 355 355 353 352 353 352 351 352 354 351 349 350 349 346 344 340 335 331 327 323 320 318 314 310 305 300
171 169 166 165 166 164 157 155 153 150 150 151 152 145 138 135 136 137 137 137 135 131 127 121 115 111 107 96 89 82 75 68 58 50 44 38 33 29 27 24 21 19 17 14 12 12 11 10 8 7 5 3 2 2 1 1 0 358 358 357 356 355 355 356 353 352 354 354 352 352 355 352 350 351 350 348 345 342 338 334 330 326 323 321 318 313 308 303
172 169 164 161 158 155 151 149 150 150 152 154 151 143 138 138 139 140 142 142 139 134 128 119 114 115 108 95 88 78 70 63 53 45 40 35 30 28 25 23 20 18 16 14 13 13 11 10 9 7 5 4 2 1 2 1 360 358 357 357 356 356 356 356 355 353 354 355 353 353 356 353 351 352 351 349 347 345 341 337 333 329 326 325 322 318 313 308
171 168 162 156 151 147 146 148 151 153 155 155 149 143 141 141 142 144 145 144 142 136 126 120 119 114 101 93 90 76 66 58 48 41 36 33 29 26 24 22 20 18 17 15 14 13 11 10 9 7 5 3 1 0 2 1 360 358 358 357 356 357 357 358 357 353 354 356 354 354 356 353 352 353 352 351 349 347 344 340 336 332 330 328 326 322 317 312
169 167 160 154 148 144 146 151 153 155 157 153 147 144 143 144 145 146 146 146 143 133 125 129 122 105 95 95 92 74 62 54 44 39 35 31 28 26 24 23 21 20 18 16 14 12 11 10 9 7 5 3 0 0 1 1 360 359 357 356 356 358 358 358 357 354 354 357 355 355 357 354 353 353 353 352 351 349 346 343 339 336 334 332 331 327 322 317
168 163 158 154 147 145 151 154 156 157 155 149 147 146 147 147 147 147 147 146 140 130 129 129 113 100 99 95 85 69 57 50 41 36 33 30 28 27 25 23 22 20 18 16 15 12 10 10 9 7 5 2 1 1 1 0 360 358 357 356 356 357 358 358 358 357 355 357 355 354 357 355 353 354 353 353 353 351 349 346 344 342 339 336 335 332 327 322
161 157 156 152 146 148 156 157 157 155 150 148 149 149 149 149 148 148 147 143 135 131 132 121 108 103 100 88 77 65 53 46 39 35 33 31 29 26 24 23 21 20 18 16 14 12 10 9 8 7 4 2 2 1 360 359 359 358 358 357 355 355 358 359 360 359 356 357 356 354 356 354 353 354 354 353 353 352 351 350 349 347 344 341 339 336 332 327
153 153 153 149 147 153 160 159 155 151 149 150 150 150 151 151 150 148 145 138 133 135 132 119 108 103 98 86 73 60 50 43 37 33 31 29 27 25 23 21 20 19 17 15 13 11 10 9 8 5 3 4 3 0 358 358 358 359 359 357 354 354 357 360 0 359 356 357 357 354 355 354 353 354 353 352 353 353 354 353 352 350 349 346 343 339 336 332
150 152 150 149 152 159 162 157 152 149 150 151 150 151 153 152 150 146 141 138 138 136 126 113 105 102 98 85 68 56 49 41 35 32 28 25 24 21 19 17 17 16 14 13 11 10 9 8 6 3 4 4 1 358 356 357 357 358 357 355 354 355 357 359 360 359 356 356 356 355 355 354 352 352 352 353 354 356 356 355 354 352 352 350 347 343 339 336
149 149 150 154 158 162 159 152 149 149 150 150 150 152 153 151 147 142 142 143 141 128 114 107 105 107 100 76 61 52 46 39 34 29 25 22 19 16 14 13 13 12 11 10 9 8 7 6 4 3 4 2 359 356 355 355 356 356 356 354 355 356 356 358 359 359 356 354 355 356 355 354 352 353 354 355 356 358 358 356 355 354 353 351 349 347 343 339
148 150 154 159 162 160 154 149 148 149 150 150 151 153 152 149 146 144 144 140 130 118 113 113 114 114 95 69 54 48 43 38 32 27 23 19 14 11 10 10 10 9 8 7 7 6 5 4 2 2 3 360 355 353 353 354 355 356 356 356 355 355 356 357 358 358 356 354 355 356 356 354 353 355 356 358 358 359 358 357 356 355 353 351 350 348 346 341
150 155 160 161 160 154 149 147 149 150 150 150 151 153 152 149 147 143 137 130 122 118 119 120 118 110 78 59 49 46 42 35 29 24 18 13 9 8 8 8 7 7 4 4 5 4 4 2 359 1 2 358 353 351 351 353 354 355 356 357 355 354 355 357 357 358 356 355 355 356 356 354 355 357 358 359 359 359 359 358 357 356 354 352 350 348 347 343
153 158 162 160 155 150 148 149 150 152 151 150 151 151 151 149 144 137 131 126 123 122 122 121 116 94 66 54 47 41 36 31 25 20 13 8 6 6 7 7 6 4 2 3 2 2 3 359 357 1 360 354 352 352 350 350 352 354 355 357 357 354 354 356 357 357 357 355 355 356 357 356 356 358 359 360 360 359 359 359 358 356 354 353 351 349 347 344
157 160 160 157 152 149 150 151 152 152 151 151 150 149 149 147 141 135 132 128 125 124 122 117 101 79 60 49 41 35 30 26 22 16 11 8 6 5 6 6 4 2 1 0 359 360 360 357 358 358 351 348 351 352 350 349 351 353 354 355 356 355 353 355 357 357 358 356 355 355 356 357 357 358 359 0 0 360 0 0 359 357 355 353 352 350 347 345
159 160 158 154 152 151 152 153 153 152 153 153 150 147 148 147 142 138 135 131 128 127 120 108 86 67 51 42 37 30 25 22 17 11 10 10 7 7 6 5 3 0 359 357 357 358 356 356 357 350 345 348 351 352 352 350 351 353 353 352 354 355 353 354 356 357 358 358 355 353 356 359 358 359 360 1 1 1 1 1 359 357 355 354 354 351 348 346
159 161 158 153 153 154 155 154 153 154 156 155 150 147 147 148 145 141 137 133 131 127 116 100 77 59 45 39 32 24 21 17 11 9 12 10 9 8 5 3 1 359 357 355 355 355 353 354 352 346 348 352 352 352 352 349 350 352 352 351 351 354 354 354 356 357 358 358 355 354 356 359 359 360 0 1 2 2 2 1 360 358 356 355 353 351 350 349
159 161 158 154 155 156 157 156 155 158 158 156 151 147 148 150 147 142 137 134 133 125 111 88 63 48 38 34 27 21 17 12 9 10 12 11 10 8 4 2 360 357 355 353 353 351 351 351 348 348 352 352 350 350 351 350 349 349 350 351 350 352 355 355 355 357 358 357 355 355 357 359 0 1 1 1 2 2 2 1 0 359 358 355 353 353 353 351
160 161 159 157 157 159 159 158 159 161 158 155 151 148 150 151 149 145 141 138 133 121 99 68 50 37 29 25 21 18 13 10 10 10 11 10 9 7 4 1 358 355 353 352 351 350 350 349 347 349 351 350 349 349 350 350 348 347 349 351 351 352 354 356 356 357 358 356 356 357 357 359 2 1 0 1 2 3 2 2 0 359 358 355 354 356 355 352
162 162 160 160 160 161 162 161 163 161 158 156 152 152 154 153 153 151 148 145 133 112 75 52 40 27 20 18 15 14 12 10 9 8 8 6 5 5 3 360 357 355 353 351 350 350 350 348 348 349 349 348 348 348 350 350 348 348 348 350 353 353 353 355 356 357 358 356 356 359 359 360 2 2 360 1 2 3 3 2 1 359 357 357 358 357 355 353
163 162 161 162 162 163 164 164 165 161 159 159 156 156 158 156 159 159 156 154 130 92 55 38 27 17 13 13 13 11 10 8 6 5 3 2 2 2 0 360 358 355 353 351 350 350 349 348 348 348 348 348 347 347 348 349 349 349 349 350 354 355 354 355 355 356 356 356 357 359 0 1 2 1 0 1 2 2 2 2 1 359 359 359 359 357 355 354
164 164 162 163 164 165 166 167 165 162 162 161 159 160 161 161 167 167 164 160 130 77 41 23 15 11 7 8 9 8 6 3 1 360 358 359 360 359 359 359 356 353 354 353 351 350 349 348 347 348 348 347 347 347 346 348 351 351 351 352 353 354 355 355 354 353 355 358 359 359 1 1 1 1 0 0 1 2 2 2 1 0 0 360 358 357 356 354
165 165 163 164 166 167 168 167 165 165 165 164 163 163 165 168 172 171 170 160 127 64 29 15 10 7 2 3 5 3 1 359 357 355 355 357 356 356 357 355 353 353 354 353 352 350 348 347 347 347 347 347 347 346 345 348 351 351 352 353 352 353 354 354 353 352 354 358 359 359 1 2 360 0 0 360 1 1 1 2 2 2 1 359 357 357 357 355
167 166 164 166 167 168 168 166 165 168 168 167 167 167 169 174 176 175 176 171 138 35 13 7 4 1 358 359 359 358 356 354 354 353 354 354 353 353 354 352 351 353 353 352 351 349 346 346 346 346 347 347 347 345 346 348 348 350 351 351 350 351 353 353 352 352 353 357 0 1 1 1 359 359 360 360 0 0 1 2 2 2 0 359 358 357 357 357
168 167 165 167 169 169 169 166 167 171 171 170 170 170 174 178 180 183 184 183 185 351 354 355 354 353 355 355 354 353 351 350 351 352 352 351 350 351 350 349 351 352 352 350 348 346 346 346 346 345 346 346 346 347 347 346 346 348 350 350 350 351 352 352 352 354 354 356 1 2 1 0 359 359 0 0 360 359 360 0 1 1 360 359 358 358 358 358
169 167 167 169 170 170 170 168 170 173 172 173 173 174 179 183 187 192 194 202 252 327 338 340 342 344 349 351 350 349 347 348 350 350 349 349 349 349 348 349 351 350 348 346 345 346 347 347 344 344 344 344 346 348 347 345 346 347 348 349 350 350 351 352 353 356 356 356 360 1 0 359 359 0 0 359 359 359 359 359 360 360 360 359 358 358 359 359
168 168 168 170 171 172 172 170 173 175 174 176 178 180 185 189 193 199 208 228 268 312 326 330 335 341 343 345 346 345 345 347 348 348 347 347 347 347 346 347 347 345 343 343 345 348 348 345 344 344 344 344 346 348 347 346 346 346 347 348 348 349 351 353 355 357 357 356 357 360 1 359 359 0 360 358 358 358 359 359 359 360 360 359 359 359 359 359
168 168 170 171 173 175 174 173 176 177 177 179 183 186 190 194 200 208 221 243 272 295 313 324 331 338 340 340 340 342 344 347 347 346 346 346 345 344 344 344 342 341 341 344 348 349 346 344 345 345 344 344 345 346 347 347 346 346 348 347 346 348 351 354 356 358 358 356 356 358 1 1 360 359 359 358 358 358 358 358 359 360 0 0 360 359 360 360
168 169 171 174 177 177 175 177 180 180 182 185 189 192 196 202 211 222 235 254 275 287 303 317 322 329 335 337 338 341 344 345 344 344 344 343 342 341 341 340 340 341 343 345 347 347 345 345 345 345 345 345 345 345 346 346 346 347 347 344 345 348 350 353 356 358 359 357 355 357 359 1 1 358 357 358 359 358 357 357 358 360 0 0 0 360 360 360
169 171 173 177 179 179 179 182 185 186 189 191 194 198 203 210 222 234 246 260 274 285 299 313 319 323 328 333 337 340 343 343 342 342 342 341 341 340 339 340 341 342 344 345 345 344 345 346 345 345 346 345 345 344 344 346 347 346 345 345 346 348 350 353 354 356 359 358 355 356 359 1 1 359 357 358 358 358 356 357 358 359 359 360 0 360 359 359
171 173 176 180 182 181 184 187 189 191 194 197 199 204 210 219 230 240 249 260 271 284 295 306 316 322 326 330 336 339 341 341 340 341 341 341 341 340 340 340 341 341 342 344 344 344 344 345 346 346 346 346 345 344 343 345 346 345 345 345 347 350 351 352 353 354 357 358 356 355 358 0 0 359 358 358 358 357 355 357 358 358 358 359 359 359 359 359
172 175 179 183 184 186 189 192 194 196 200 203 206 211 217 225 234 243 252 263 274 285 295 303 312 320 325 329 333 337 339 339 339 340 341 342 341 341 341 341 341 341 342 342 343 344 344 345 346 347 346 345 344 344 344 345 345 345 343 344 348 351 351 350 351 353 354 357 358 356 356 359 360 360 359 358 357 356 356 357 357 356 357 357 358 359 358 358
173 177 181 184 187 191 195 197 200 202 205 209 212 217 223 229 237 246 255 265 276 286 296 304 310 317 323 328 332 335 337 337 339 340 341 341 341 342 342 341 340 341 342 342 342 343 344 345 346 346 345 344 344 345 345 345 344 343 343 344 347 349 349 349 350 352 353 356 359 357 354 357 359 359 360 358 356 356 356 357 356 355 355 356 357 358 358 358
173 178 183 186 190 195 198 201 203 206 209 213 217 222 227 233 241 249 257 268 279 286 295 302 308 315 320 325 329 331 334 335 337 339 340 341 342 342 342 341 341 341 341 341 342 343 344 346 346 345 345 345 344 345 345 344 343 343 344 345 345 347 349 350 349 350 351 353 358 358 354 355 359 360 0 358 356 356 357 356 356 355 355 356 356 357 357 358
175 181 185 189 193 196 200 203 206 210 213 217 222 227 233 240 247 255 264 272 281 288 294 300 306 313 317 321 326 328 331 334 335 337 339 341 342 342 342 342 342 342 341 341 342 343 344 345 345 344 344 345 344 344 344 343 343 344 345 345 344 346 349 350 350 350 350 351 356 359 355 354 358 360 360 359 357 357 357 356 355 355 355 356 356 356 357 357
178 183 187 191 195 198 202 206 210 213 218 222 228 233 239 246 253 260 267 273 281 288 293 299 304 310 313 317 322 326 329 332 334 336 338 340 341 341 342 342 342 342 342 342 342 343 343 343 344 344 344 344 344 344 344 343 344 344 344 344 344 345 347 350 351 351 350 350 353 357 357 354 356 359 359 359 358 357 357 356 355 355 356 355 355 355 356 357
180 184 189 193 196 200 205 209 213 218 223 228 234 240 246 252 258 263 269 275 281 287 292 297 301 306 310 314 319 324 327 330 333 335 336 338 339 340 341 341 342 342 342 343 342 342 342 342 343 343 344 344 343 344 344 344 345 345 345 345 345 345 346 348 351 351 350 349 350 355 358 355 355 357 358 358 358 356 356 355 355 355 356 355 354 354 355 356
183 186 191 196 200 206 210 214 219 224 229 235 240 246 251 256 262 268 272 277 282 286 290 294 298 302 307 311 316 321 325 327 330 332 334 336 337 338 339 340 341 342 342 343 342 341 341 341 341 342 344 344 343 343 344 345 346 347 347 346 345 345 345 347 350 352 351 349 348 353 357 354 354 357 357 358 357 356 355 355 354 355 355 354 354 353 354 355
186 189 196 202 206 212 216 221 226 230 236 242 246 252 257 261 266 271 275 279 282 285 289 292 296 300 305 310 314 318 322 325 328 330 332 334 335 336 338 339 340 341 341 342 341 340 340 340 340 340 343 344 343 343 345 345 346 348 349 347 345 345 345 346 349 351 352 351 348 352 356 355 354 356 357 357 357 356 355 354 355 355 355 354 353 353 353 354
190 194 202 210 214 219 224 229 234 239 245 249 252 256 260 264 269 272 276 280 283 286 288 290 294 299 303 308 312 316 319 322 325 327 329 331 333 334 336 337 338 339 340 340 340 340 339 339 340 339 341 344 343 343 345 346 346 347 349 349 346 345 345 346 348 350 352 352 350 351 357 357 354 355 356 356 357 355 354 355 355 355 355 353 353 352 353 354
193 200 211 220 224 230 236 240 244 247 251 254 257 260 264 268 271 273 276 279 282 286 288 290 293 297 301 305 309 313 316 319 322 325 327 329 330 332 333 335 336 337 337 338 339 339 339 339 340 339 339 343 344 344 345 346 346 346 347 349 347 346 345 346 348 350 353 354 352 350 356 359 356 355 356 356 356 356 355 356 356 355 354 353 352 352 352 353
198 208 222 229 233 240 244 247 250 253 256 259 261 265 268 271 273 275 277 279 281 284 287 289 292 296 299 303 307 311 314 317 319 322 324 326 327 329 331 332 333 335 335 336 337 338 339 340 341 340 339 342 345 344 345 346 346 346 346 348 349 347 346 345 347 351 353 355 354 351 354 360 359 356 356 356 356 356 356 356 356 354 353 353 353 352 352 353
206 217 230 236 239 245 249 252 256 260 264 266 267 269 271 273 274 276 278 279 281 284 286 289 292 295 298 302 305 308 311 314 317 319 321 323 325 327 328 330 331 332 333 334 335 337 338 339 342 342 340 341 344 344 344 345 345 346 346 347 349 349 347 346 348 351 353 354 355 353 353 358 360 357 356 356 356 356 357 356 355 354 353 353 353 353 352 353
216 224 233 239 243 249 254 258 262 266 270 272 273 275 275 276 277 278 279 280 282 285 287 289 292 294 297 300 303 306 309 312 314 316 318 320 322 324 325 327 329 330 331 332 333 335 336 337 340 343 340 340 343 344 345 346 344 344 345 346 349 351 349 348 349 351 352 352 354 355 354 356 358 358 357 356 356 356 356 356 355 354 354 353 353 353 353 352
222 229 237 244 248 253 259 263 268 272 275 278 280 281 281 281 281 281 281 282 283 285 287 289 292 294 297 299 302 304 307 309 312 314 316 317 319 321 323 324 326 327 328 330 331 332 335 335 337 342 341 340 343 345 344 345 343 343 344 346 349 352 351 349 349 351 352 352 353 356 357 356 357 358 357 356 356 356 356 355 355 354 354 354 353 353 353 352
230 237 242 248 253 258 263 266 270 273 276 281 285 286 287 287 287 286 286 285 285 286 288 290 292 294 296 298 301 303 305 307 309 311 313 315 316 318 321 322 324 325 326 329 330 330 333 333 334 339 341 340 341 343 343 344 344 344 345 346 348 352 353 350 349 350 351 351 353 354 357 356 356 357 358 356 356 356 356 355 355 354 354 353 353 353 353 352
241 246 249 254 259 263 265 266 267 268 272 278 283 286 289 291 292 293 292 291 290 289 290 291 292 294 296 297 299 301 303 305 307 309 310 312 314 316 319 321 322 324 325 327 329 329 330 332 332 335 339 339 339 342 343 344 345 344 344 345 348 352 354 350 348 349 350 351 353 353 355 356 355 356 357 357 356 357 356 355 355 354 353 353 353 353 352 351
251 255 258 262 264 266 267 266 267 268 272 276 281 283 286 288 291 294 296 296 295 293 292 292 292 293 294 296 297 299 301 303 305 307 309 311 313 316 318 320 321 323 325 326 328 328 329 331 331 332 337 339 339 342 344 344 343 343 343 346 348 351 353 350 347 349 350 350 352 353 353 355 354 354 356 357 356 356 356 355 355 354 353 353 353 353 352 352
258 260 264 267 269 270 271 272 272 273 275 277 279 280 281 283 286 290 293 295 296 296 295 294 293 293 294 295 296 298 300 302 304 306 308 310 313 315 317 319 321 322 324 325 327 328 328 330 331 331 334 338 339 341 344 342 341 343 345 347 347 347 350 350 347 348 350 350 351 352 352 353 353 353 354 355 355 356 356 355 354 354 354 353 352 352 352 352
Height
5807 5809 5810 5812 5814 5816 5818 5819 5821 5823 5824 5825 5827 5828 5828 5828 5829 5829 5830 5831 5832 5832 5832 5832 5832 5833 5833 5833 5833 5833 5832 5832 5832 5832 5831 5830 5829 5828 5828 5827 5826 5825 5824 5822 5821 5820 5820 5819 5816 5814 5813 5812 5810 5809 5807 5805 5804 5802 5800 5797 5795 5794 5792 5789 5786 5783 5779 5777 5773 5770 5767 5761 5757 5753 5748 5739 5731 5725 5719 5714 5711 5707 5703 5697 5689 5683 5676 5670
5807 5809 5811 5813 5815 5816 5818 5820 5821 5823 5825 5826 5827 5828 5828 5828 5829 5830 5831 5832 5832 5833 5833 5833 5833 5833 5834 5834 5833 5833 5832 5833 5833 5833 5832 5830 5830 5829 5828 5827 5826 5825 5824 5822 5821 5820 5819 5817 5815 5814 5812 5811 5809 5808 5806 5805 5803 5800 5798 5795 5792 5790 5789 5786 5783 5780 5777 5773 5769 5766 5762 5756 5752 5748 5743 5735 5725 5717 5710 5700 5694 5691 5687 5683 5678 5673 5667 5661
5808 5809 5811 5813 5815 5817 5818 5820 5822 5824 5825 5827 5828 5828 5828 5829 5829 5830 5831 5832 5833 5833 5833 5833 5834 5834 5834 5834 5834 5834 5833 5834 5834 5833 5832 5831 5830 5829 5828 5828 5826 5825 5823 5822 5821 5820 5819 5817 5815 5813 5812 5810 5808 5807 5805 5804 5801 5798 5796 5793 5791 5788 5786 5783 5780 5777 5773 5770 5766 5761 5758 5752 5748 5745 5740 5733 5724 5715 5707 5697 5686 5679 5673 5668 5663 5659 5655 5650
5808 5810 5812 5814 5815 5817 5819 5820 5822 5824 5826 5827 5828 5828 5828 5829 5830 5831 5832 5833 5833 5834 5834 5834 5834 5834 5835 5835 5834 5835 5834 5834 5834 5833 5832 5831 5830 5829 5828 5827 5826 5824 5823 5822 5821 5820 5818 5817 5815 5813 5812 5810 5808 5806 5805 5802 5800 5797 5795 5792 5790 5786 5784 5781 5778 5775 5771 5766 5762 5757 5753 5747 5743 5741 5735 5730 5722 5713 5705 5695 5684 5674 5665 5657 5651 5646 5641 5638
5809 5810 5812 5815 5816 5817 5819 5821 5823 5825 5826 5827 5828 5829 5829 5830 5831 5832 5833 5833 5834 5834 5835 5835 5835 5835 5835 5835 5835 5835 5835 5835 5835 5834 5832 5831 5830 5829 5828 5826 5825 5824 5823 5822 5821 5820 5818 5817 5815 5813 5811 5808 5806 5805 5802 5800 5798 5796 5793 5791 5788 5785 5783 5780 5775 5772 5769 5765 5759 5755 5751 5745 5739 5735 5730 5723 5715 5707 5698 5689 5678 5667 5656 5648 5641 5635 5630 5626
5809 5811 5813 5815 5816 5818 5819 5821 5824 5825 5826 5828 5829 5829 5830 5831 5832 5833 5834 5834 5834 5835 5835 5835 5836 5836 5836 5836 5836 5836 5836 5835 5834 5833 5832 5831 5830 5829 5828 5826 5825 5824 5824 5823 5821 5819 5818 5816 5814 5812 5809 5807 5805 5803 5800 5798 5795 5793 5791 5789 5786 5784 5781 5778 5774 5770 5766 5762 5757 5752 5748 5742 5735 5730 5724 5717 5709 5701 5692 5681 5671 5660 5649 5640 5632 5625 5619 5615
5810 5811 5814 5815 5817 5818 5820 5822 5824 5826 5827 5828 5829 5830 5831 5832 5833 5833 5834 5834 5835 5835 5836 5836 5836 5837 5837 5836 5836 5837 5836 5835 5834 5833 5832 5831 5830 5829 5828 5827 5826 5825 5824 5822 5820 5819 5817 5815 5813 5811 5808 5806 5804 5802 5800 5797 5795 5793 5790 5787 5785 5782 5779 5776 5771 5766 5763 5759 5754 5749 5744 5738 5731 5726 5719 5712 5705 5696 5687 5676 5666 5654 5643 5633 5625 5617 5610 5606
5810 5813 5815 5816 5818 5819 5821 5823 5825 5826 5828 5829 5830 5830 5831 5832 5833 5834 5835 5835 5836 5836 5837 5837 5837 5837 5837 5836 5837 5837 5836 5835 5834 5833 5832 5831 5830 5829 5828 5827 5826 5825 5823 5822 5820 5819 5817 5815 5813 5810 5808 5805 5803 5801 5799 5797 5794 5791 5788 5785 5783 5780 5777 5772 5767 5763 5760 5755 5750 5745 5741 5734 5727 5721 5715 5708 5700 5692 5682 5671 5660 5649 5637 5626 5617 5610 5603 5598
5811 5814 5815 5817 5819 5820 5822 5824 5825 5827 5829 5830 5830 5831 5832 5833 5834 5835 5835 5836 5836 5837 5837 5838 5838 5837 5837 5837 5838 5837 5836 5835 5834 5833 5832 5831 5830 5829 5828 5828 5827 5825 5823 5822 5820 5818 5816 5814 5812 5810 5807 5805 5802 5799 5797 5795 5792 5789 5786 5783 5780 5777 5773 5770 5767 5761 5755 5751 5746 5740 5736 5729 5722 5717 5710 5704 5695 5686 5677 5667 5657 5645 5632 5621 5611 5603 5597 5591
5812 5814 5816 5818 5819 5821 5823 5825 5826 5828 5829 5830 5831 5832 5833 5834 5834 5835 5836 5837 5837 5838 5838 5838 5838 5838 5838 5838 5838 5837 5836 5835 5834 5833 5833 5832 5831 5830 5829 5828 5826 5825 5823 5821 5819 5817 5815 5813 5812 5809 5807 5805 5802 5799 5796 5793 5791 5788 5785 5781 5777 5775 5773 5769 5765 5758 5752 5747 5742 5735 5730 5724 5718 5712 5705 5698 5691 5683 5675 5666 5655 5642 5629 5617 5606 5597 5590 5584
5813 5815 5817 5819 5820 5822 5824 5826 5827 5828 5830 5831 5832 5832 5833 5834 5835 5836 5837 5837 5838 5838 5839 5838 5838 5838 5839 5839 5838 5837 5836 5835 5834 5834 5833 5832 5831 5830 5829 5828 5826 5824 5823 5821 5819 5817 5815 5813 5811 5809 5807 5804 5800 5797 5795 5793 5790 5787 5783 5778 5774 5772 5770 5766 5760 5755 5750 5745 5738 5731 5726 5721 5714 5707 5701 5696 5689 5682 5674 5663 5651 5638 5625 5612 5601 5592 5585 5578
5813 5815 5817 5819 5821 5823 5825 5827 5828 5829 5830 5831 5832 5833 5834 5835 5836 5836 5837 5838 5838 5839 5839 5839 5839 5839 5839 5839 5838 5837 5836 5835 5835 5834 5833 5832 5831 5830 5829 5828 5826 5824 5822 5820 5819 5817 5814 5812 5810 5808 5805 5802 5798 5796 5794 5791 5788 5784 5780 5776 5773 5769 5765 5760 5755 5751 5746 5741 5737 5731 5725 5719 5712 5706 5700 5695 5688 5680 5669 5656 5644 5632 5622 5610 5598 5588 5580 5573
5814 5816 5818 5820 5822 5824 5826 5827 5828 5829 5830 5831 5832 5833 5835 5835 5836 5837 5838 5838 5839 5839 5840 5839 5839 5839 5840 5840 5838 5837 5836 5835 5835 5834 5833 5832 5831 5830 5828 5827 5825 5823 5822 5820 5818 5816 5814 5811 5809 5807 5803 5800 5797 5795 5792 5789 5786 5782 5779 5775 5771 5766 5760 5756 5752 5748 5743 5739 5736 5731 5726 5719 5713 5707 5700 5692 5682 5671 5658 5647 5637 5627 5618 5607 5597 5586 5576 5569
5814 5816 5818 5821 5823 5825 5826 5827 5828 5829 5831 5832 5833 5834 5835 5836 5837 5838 5838 5839 5840 5840 5839 5840 5840 5841 5841 5840 5838 5837 5836 5836 5835 5834 5833 5832 5830 5829 5828 5826 5824 5823 5821 5820 5818 5815 5813 5811 5808 5805 5801 5799 5797 5795 5792 5789 5786 5782 5778 5773 5768 5763 5759 5755 5751 5747 5742 5738 5733 5728 5722 5716 5711 5703 5694 5683 5671 5660 5650 5640 5631 5621 5610 5600 5591 5582 5572 5563
5815 5817 5819 5822 5824 5825 5826 5827 5829 5830 5831 5832 5834 5835 5836 5837 5838 5839 5839 5840 5840 5840 5840 5840 5841 5841 5841 5840 5838 5838 5837 5836 5835 5834 5833 5832 5830 5829 5827 5825 5824 5822 5821 5819 5817 5815 5812 5809 5807 5804 5801 5798 5795 5793 5791 5787 5783 5779 5775 5771 5766 5762 5759 5754 5750 5746 5741 5735 5730 5723 5717 5711 5704 5695 5683 5672 5662 5653 5645 5636 5625 5614 5603 5593 5584 5576 5568 5559
5816 5818 5821 5823 5825 5826 5827 5828 5830 5831 5832 5833 5834 5835 5836 5837 5838 5839 5840 5840 5840 5840 5841 5841 5842 5842 5841 5840 5839 5838 5837 5836 5835 5834 5833 5831 5830 5828 5827 5825 5824 5822 5821 5819 5817 5814 5812 5809 5807 5804 5800 5798 5795 5791 5787 5784 5781 5777 5774 5770 5765 5760 5756 5752 5747 5743 5737 5731 5725 5718 5711 5703 5694 5684 5675 5666 5658 5649 5642 5632 5620 5608 5598 5590 5580 5572 5564 5557
5817 5820 5822 5824 5825 5826 5827 5829 5831 5832 5833 5834 5835 5836 5837 5838 5839 5840 5840 5841 5841 5841 5842 5842 5842 5842 5841 5840 5839 5838 5837 5836 5835 5834 5832 5831 5829 5828 5826 5825 5823 5822 5820 5818 5816 5814 5811 5809 5806 5802 5800 5799 5796 5790 5785 5782 5778 5775 5771 5768 5764 5758 5753 5750 5745 5739 5732 5725 5719 5713 5707 5699 5688 5680 5672 5664 5655 5647 5639 5627 5615 5605 5596 5588 5579 5569 5561 5555
5818 5821 5823 5824 5825 5826 5828 5830 5831 5832 5833 5834 5835 5836 5838 5839 5840 5840 5841 5841 5842 5842 5843 5843 5842 5841 5841 5840 5839 5838 5837 5836 5835 5834 5833 5831 5829 5827 5826 5824 5823 5821 5819 5817 5815 5812 5809 5807 5803 5801 5800 5799 5794 5789 5784 5779 5775 5771 5767 5764 5761 5756 5750 5746 5740 5734 5728 5721 5713 5708 5704 5696 5687 5679 5671 5662 5653 5645 5634 5623 5614 5605 5596 5586 5576 5567 5559 5553
5820 5822 5823 5824 5825 5827 5829 5830 5832 5833 5834 5835 5836 5837 5839 5840 5840 5841 5841 5842 5842 5843 5843 5843 5843 5842 5841 5840 5839 5838 5837 5836 5835 5834 5832 5830 5829 5827 5825 5823 5822 5820 5818 5816 5814 5811 5808 5806 5803 5801 5800 5795 5790 5786 5781 5777 5773 5769 5765 5760 5758 5754 5748 5742 5737 5732 5726 5720 5712 5707 5701 5693 5685 5677 5668 5659 5650 5640 5630 5621 5613 5604 5595 5584 5574 5568 5561 5552
5820 5822 5823 5824 5826 5828 5830 5831 5832 5833 5834 5836 5837 5838 5839 5841 5841 5842 5842 5842 5843 5844 5844 5843 5843 5842 5841 5840 5839 5838 5837 5836 5835 5833 5832 5830 5828 5826 5824 5823 5820 5818 5816 5814 5812 5809 5807 5804 5803 5801 5796 5791 5787 5784 5780 5776 5771 5768 5764 5759 5755 5751 5745 5738 5733 5728 5723 5717 5712 5705 5697 5691 5682 5673 5664 5656 5647 5637 5628 5620 5612 5603 5593 5582 5575 5571 5561 5549
5821 5823 5824 5825 5827 5829 5830 5832 5833 5834 5835 5836 5838 5839 5840 5842 5842 5843 5843 5843 5844 5844 5844 5844 5843 5842 5841 5840 5839 5838 5837 5836 5835 5833 5831 5829 5827 5825 5823 5821 5819 5817 5815 5813 5811 5808 5806 5803 5801 5798 5794 5790 5787 5783 5779 5775 5770 5766 5763 5758 5753 5748 5744 5737 5731 5726 5720 5716 5711 5703 5694 5688 5679 5669 5661 5653 5644 5635 5626 5618 5610 5601 5591 5584 5579 5570 5556 5545
5821 5823 5825 5826 5828 5830 5831 5832 5833 5835 5836 5837 5838 5839 5841 5842 5843 5843 5844 5844 5844 5844 5844 5844 5843 5842 5841 5840 5839 5838 5837 5835 5834 5832 5830 5828 5827 5825 5823 5820 5818 5816 5814 5812 5809 5807 5804 5801 5798 5795 5792 5789 5786 5782 5778 5773 5769 5764 5760 5756 5751 5745 5740 5736 5731 5725 5720 5715 5709 5700 5691 5684 5675 5666 5659 5651 5643 5634 5625 5617 5609 5600 5594 5589 5578 5562 5551 5544
5822 5824 5826 5827 5829 5830 5831 5833 5834 5835 5836 5838 5839 5840 5841 5842 5843 5844 5844 5845 5845 5844 5844 5843 5842 5842 5841 5840 5839 5838 5836 5835 5833 5832 5830 5828 5827 5825 5823 5820 5818 5815 5812 5809 5807 5804 5801 5799 5796 5793 5790 5787 5784 5780 5777 5772 5768 5762 5758 5754 5749 5743 5737 5732 5727 5722 5716 5711 5704 5697 5689 5680 5672 5665 5658 5650 5641 5633 5625 5618 5609 5601 5596 5585 5569 5556 5550 5543
5823 5825 5827 5828 5829 5831 5832 5833 5835 5835 5837 5838 5840 5841 5842 5843 5844 5844 5845 5845 5845 5844 5844 5843 5842 5842 5841 5840 5839 5837 5836 5835 5833 5832 5830 5829 5827 5825 5822 5820 5817 5815 5812 5809 5806 5803 5800 5797 5794 5791 5788 5785 5782 5778 5774 5770 5765 5761 5756 5750 5746 5741 5734 5728 5724 5719 5714 5706 5698 5692 5685 5676 5670 5664 5656 5648 5640 5633 5625 5616 5608 5601 5591 5576 5565 5559 5552 5543
5823 5825 5827 5829 5830 5831 5833 5834 5835 5836 5837 5839 5840 5841 5842 5843 5844 5845 5845 5845 5845 5844 5844 5843 5843 5842 5841 5840 5838 5837 5836 5834 5833 5832 5830 5828 5826 5823 5821 5818 5816 5814 5812 5808 5805 5801 5798 5795 5792 5789 5786 5782 5779 5775 5771 5768 5763 5758 5753 5747 5743 5738 5732 5725 5720 5715 5710 5703 5694 5688 5681 5674 5668 5661 5654 5647 5640 5632 5623 5614 5606 5596 5583 5572 5567 5561 5553 5544
5824 5826 5828 5829 5831 5832 5833 5834 5836 5837 5838 5839 5841 5842 5843 5844 5845 5845 5845 5845 5845 5844 5844 5843 5842 5842 5841 5839 5838 5837 5835 5834 5833 5831 5829 5827 5824 5822 5820 5817 5815 5812 5809 5806 5803 5799 5796 5793 5790 5787 5784 5780 5776 5772 5769 5765 5761 5757 5751 5746 5741 5736 5731 5725 5718 5712 5706 5700 5693 5685 5677 5670 5665 5659 5653 5646 5637 5628 5620 5612 5601 5589 5579 5574 5569 5561 5553 5544
5825 5827 5828 5830 5831 5833 5834 5835 5836 5838 5839 5840 5841 5842 5843 5844 5845 5845 5845 5845 5845 5844 5844 5843 5842 5841 5840 5839 5838 5836 5835 5834 5832 5830 5828 5825 5823 5821 5819 5816 5814 5811 5807 5804 5801 5798 5795 5792 5788 5785 5782 5778 5774 5770 5766 5762 5758 5755 5750 5746 5741 5735 5730 5724 5718 5710 5703 5698 5691 5681 5674 5669 5663 5658 5651 5642 5633 5626 5617 5607 5597 5589 5583 5578 5570 5561 5553 5543
5826 5827 5829 5830 5832 5833 5834 5835 5837 5838 5839 5841 5841 5842 5843 5844 5845 5845 5845 5845 5845 5844 5844 5843 5842 5841 5840 5839 5837 5836 5834 5833 5831 5828 5826 5824 5822 5820 5817 5815 5812 5809 5806 5803 5800 5798 5794 5790 5786 5783 5779 5776 5772 5768 5763 5759 5756 5752 5748 5743 5738 5732 5728 5723 5717 5708 5700 5694 5687 5680 5673 5669 5663 5656 5647 5638 5629 5621 5612 5603 5596 5591 5585 5578 5570 5561 5551 5541
5826 5828 5829 5831 5832 5834 5835 5836 5837 5839 5840 5841 5842 5843 5844 5844 5845 5845 5845 5845 5845 5844 5844 5843 5842 5841 5840 5838 5837 5835 5833 5831 5829 5827 5825 5823 5821 5818 5816 5814 5811 5808 5806 5803 5800 5797 5793 5788 5784 5780 5777 5773 5769 5765 5761 5757 5753 5749 5745 5741 5736 5731 5727 5721 5714 5706 5697 5690 5685 5680 5674 5667 5661 5652 5643 5635 5628 5620 5611 5605 5599 5592 5584 5576 5569 5560 5550 5540
5827 5828 5830 5831 5833 5834 5836 5837 5838 5839 5840 5841 5842 5843 5844 5845 5845 5845 5845 5845 5844 5844 5844 5843 5842 5841 5839 5838 5836 5834 5832 5830 5827 5825 5823 5821 5819 5817 5815 5812 5810 5809 5807 5804 5800 5795 5791 5787 5784 5779 5774 5770 5766 5763 5759 5755 5750 5746 5741 5737 5734 5729 5724 5718 5712 5705 5697 5691 5686 5681 5674 5665 5656 5649 5642 5635 5627 5620 5613 5608 5601 5593 5585 5576 5567 5558 5549 5540
5827 5829 5831 5832 5834 5835 5836 5837 5839 5840 5841 5842 5843 5844 5844 5845 5845 5845 5845 5845 5844 5844 5843 5842 5841 5840 5839 5837 5836 5834 5831 5829 5826 5824 5822 5820 5818 5816 5814 5812 5810 5808 5805 5801 5797 5794 5790 5786 5782 5777 5772 5767 5763 5760 5756 5751 5747 5743 5738 5734 5731 5726 5720 5716 5710 5704 5697 5690 5684 5678 5672 5664 5655 5647 5641 5635 5627 5621 5614 5608 5601 5593 5585 5576 5567 5558 5549 5540
5828 5830 5831 5833 5834 5836 5837 5838 5839 5840 5841 5842 5843 5844 5844 5845 5845 5845 5845 5844 5844 5844 5843 5842 5841 5840 5838 5837 5835 5833 5831 5828 5826 5824 5822 5820 5818 5815 5813 5811 5808 5804 5801 5797 5794 5791 5788 5784 5779 5775 5770 5765 5760 5756 5752 5749 5745 5740 5736 5732 5727 5722 5717 5712 5708 5704 5698 5690 5683 5677 5671 5663 5654 5646 5639 5633 5627 5620 5612 5605 5598 5590 5582 5574 5566 5557 5548 5540
5829 5831 5832 5834 5835 5836 5837 5839 5840 5841 5842 5843 5843 5844 5844 5845 5845 5845 5844 5844 5844 5843 5843 5842 5841 5840 5838 5836 5835 5832 5830 5828 5826 5824 5821 5819 5817 5814 5811 5808 5805 5801 5798 5795 5791 5788 5785 5781 5777 5772 5767 5762 5757 5753 5749 5745 5741 5738 5734 5729 5723 5717 5711 5707 5703 5701 5697 5689 5681 5674 5668 5660 5654 5648 5640 5632 5624 5616 5609 5602 5594 5586 5578 5570 5562 5554 5546 5539
5830 5831 5833 5834 5836 5837 5838 5839 5840 5841 5842 5843 5843 5844 5844 5844 5845 5844 5844 5844 5843 5843 5842 5841 5840 5839 5837 5836 5834 5832 5830 5828 5825 5823 5821 5818 5815 5812 5809 5806 5803 5800 5797 5794 5790 5786 5782 5779 5775 5769 5764 5760 5756 5751 5746 5742 5738 5734 5730 5726 5721 5714 5708 5703 5698 5694 5692 5687 5678 5670 5664 5659 5653 5646 5637 5629 5622 5615 5608 5600 5591 5583 5575 5567 5559 5553 5546 5539
5831 5832 5834 5835 5836 5837 5838 5839 5840 5841 5842 5843 5843 5844 5844 5844 5844 5844 5844 5843 5843 5842 5841 5840 5839 5838 5836 5835 5833 5831 5829 5827 5825 5822 5819 5817 5814 5811 5808 5804 5802 5799 5795 5792 5789 5786 5781 5777 5773 5768 5764 5760 5756 5751 5745 5740 5736 5732 5728 5724 5719 5714 5708 5703 5697 5691 5686 5683 5676 5666 5660 5655 5649 5642 5636 5629 5621 5614 5605 5596 5588 5581 5574 5567 5560 5553 5545 5538
5831 5833 5834 5835 5837 5838 5839 5840 5841 5841 5842 5843 5843 5844 5844 5844 5844 5844 5843 5843 5842 5841 5841 5840 5838 5837 5835 5834 5832 5830 5828 5826 5824 5821 5818 5816 5812 5809 5806 5803 5800 5797 5794 5791 5787 5784 5780 5776 5771 5767 5764 5759 5754 5750 5745 5739 5735 5731 5726 5721 5716 5712 5707 5701 5695 5689 5682 5678 5673 5665 5658 5654 5648 5641 5634 5625 5617 5610 5602 5593 5586 5579 5573 5566 5559 5551 5544 5537
5832 5834 5835 5836 5837 5838 5839 5840 5841 5841 5842 5842 5843 5843 5843 5844 5843 5843 5843 5842 5841 5841 5840 5839 5837 5836 5834 5832 5830 5829 5827 5824 5822 5820 5817 5814 5811 5808 5805 5802 5798 5795 5792 5789 5785 5782 5778 5774 5770 5766 5763 5758 5753 5748 5744 5739 5734 5729 5723 5718 5714 5710 5705 5699 5692 5686 5681 5676 5672 5665 5657 5651 5646 5638 5630 5623 5616 5608 5600 5592 5586 5580 5573 5566 5558 5550 5543 5536
5833 5834 5835 5836 5837 5838 5839 5840 5841 5841 5842 5842 5843 5843 5843 5843 5843 5843 5842 5841 5841 5840 5839 5838 5836 5834 5833 5831 5829 5827 5825 5823 5821 5818 5815 5812 5809 5806 5803 5800 5797 5793 5790 5787 5783 5779 5775 5772 5769 5764 5760 5756 5751 5747 5743 5738 5732 5726 5721 5717 5712 5707 5703 5698 5690 5683 5677 5672 5669 5665 5656 5647 5642 5636 5630 5624 5617 5609 5602 5594 5588 5581 5574 5566 5558 5551 5544 5536
5833 5835 5836 5837 5837 5838 5839 5840 5841 5841 5842 5842 5842 5843 5843 5843 5842 5842 5841 5841 5840 5839 5838 5837 5835 5833 5831 5830 5828 5826 5824 5821 5819 5816 5813 5810 5808 5805 5802 5798 5795 5792 5788 5785 5781 5777 5773 5769 5766 5762 5757 5753 5750 5745 5740 5735 5730 5725 5720 5715 5710 5704 5700 5697 5690 5682 5674 5667 5663 5660 5653 5645 5639 5634 5628 5622 5615 5608 5602 5595 5588 5580 5571 5564 5557 5550 5543 5535
5834 5835 5836 5837 5838 5838 5839 5840 5840 5841 5841 5842 5842 5842 5842 5842 5842 5841 5841 5840 5839 5838 5837 5835 5834 5832 5830 5828 5826 5824 5822 5820 5817 5815 5812 5809 5806 5803 5800 5797 5794 5790 5787 5783 5779 5775 5772 5768 5764 5760 5756 5751 5746 5743 5738 5733 5728 5723 5717 5712 5707 5702 5698 5694 5689 5682 5674 5666 5660 5655 5650 5643 5636 5631 5625 5618 5612 5605 5599 5592 5585 5577 5569 5562 5555 5548 5541 5533
5834 5835 5836 5837 5838 5839 5839 5840 5840 5841 5841 5841 5842 5842 5841 5841 5841 5840 5840 5839 5838 5837 5836 5834 5832 5831 5829 5827 5825 5823 5821 5818 5816 5813 5811 5808 5804 5801 5798 5795 5792 5788 5785 5781 5777 5774 5770 5765 5761 5758 5754 5750 5744 5741 5737 5732 5727 5722 5716 5710 5705 5700 5695 5690 5686 5681 5674 5665 5658 5652 5647 5641 5634 5629 5622 5615 5610 5603 5596 5589 5582 5574 5567 5560 5553 5546 5539 5532
5835 5836 5837 5837 5838 5839 5839 5840 5840 5841 5841 5841 5841 5841 5840 5840 5840 5839 5838 5837 5837 5835 5834 5833 5831 5829 5827 5825 5823 5821 5819 5817 5815 5812 5809 5806 5803 5800 5797 5793 5790 5786 5783 5779 5775 5771 5767 5764 5759 5755 5751 5748 5743 5738 5734 5729 5724 5720 5714 5708 5703 5698 5693 5687 5682 5679 5674 5667 5658 5653 5648 5641 5633 5627 5620 5614 5607 5600 5594 5588 5581 5573 5566 5558 5551 5544 5537 5530
5835 5836 5837 5838 5838 5839 5839 5840 5840 5840 5840 5840 5840 5840 5839 5839 5838 5838 5837 5836 5835 5834 5833 5831 5830 5828 5826 5824 5822 5820 5818 5815 5813 5810 5807 5805 5801 5798 5795 5791 5788 5784 5781 5777 5773 5769 5765 5761 5756 5751 5748 5745 5740 5735 5730 5725 5720 5716 5712 5708 5702 5696 5691 5685 5680 5676 5672 5666 5658 5651 5647 5640 5631 5624 5618 5611 5604 5598 5592 5585 5578 5571 5564 5557 5550 5543 5536 5529
5835 5836 5837 5838 5838 5839 5839 5839 5839 5839 5839 5839 5839 5839 5838 5838 5837 5836 5835 5834 5833 5832 5831 5830 5828 5826 5824 5822 5820 5818 5816 5814 5811 5809 5806 5803 5800 5797 5793 5790 5786 5783 5779 5775 5771 5767 5763 5758 5753 5748 5744 5741 5737 5731 5726 5722 5717 5713 5709 5706 5701 5694 5688 5684 5679 5674 5670 5665 5657 5649 5645 5640 5631 5623 5617 5610 5604 5598 5590 5583 5575 5569 5562 5556 5549 5542 5535 5528
5836 5836 5837 5838 5838 5838 5838 5838 5838 5838 5838 5838 5838 5837 5837 5836 5836 5835 5834 5833 5832 5830 5829 5828 5826 5825 5823 5821 5819 5816 5814 5812 5809 5807 5804 5801 5798 5795 5791 5788 5784 5781 5777 5773 5769 5765 5761 5757 5752 5746 5740 5736 5733 5728 5723 5720 5716 5711 5706 5703 5699 5693 5687 5681 5677 5672 5666 5662 5657 5648 5642 5639 5632 5623 5616 5609 5603 5597 5589 5582 5575 5568 5562 5556 5549 5541 5534 5526
5836 5836 5837 5837 5837 5837 5838 5838 5838 5837 5837 5837 5836 5836 5835 5835 5834 5833 5832 5831 5830 5829 5827 5826 5824 5823 5821 5819 5817 5815 5812 5810 5807 5804 5802 5799 5796 5793 5789 5786 5782 5778 5775 5771 5767 5764 5760 5756 5752 5747 5740 5736 5732 5728 5723 5718 5714 5710 5705 5701 5698 5692 5686 5680 5674 5668 5663 5659 5655 5647 5637 5633 5629 5622 5615 5608 5602 5595 5588 5581 5574 5568 5562 5555 5548 5540 5532 5525
5836 5836 5836 5837 5837 5837 5837 5837 5837 5836 5836 5836 5835 5835 5834 5833 5832 5831 5830 5829 5828 5827 5825 5824 5822 5820 5819 5817 5815 5813 5810 5808 5805 5802 5800 5797 5794 5790 5787 5784 5780 5776 5772 5769 5765 5761 5758 5754 5751 5747 5741 5736 5732 5728 5723 5718 5713 5709 5705 5701 5697 5692 5685 5679 5672 5667 5662 5657 5653 5647 5637 5630 5625 5620 5612 5606 5599 5592 5586 5579 5573 5568 5561 5554 5546 5539 5531 5524
5835 5836 5836 5836 5836 5836 5836 5836 5836 5835 5835 5834 5834 5833 5832 5831 5830 5829 5828 5827 5826 5825 5823 5822 5820 5818 5816 5814 5812 5810 5808 5806 5803 5800 5797 5794 5791 5788 5785 5781 5778 5774 5770 5766 5762 5759 5755 5751 5748 5746 5740 5735 5731 5726 5722 5718 5713 5708 5704 5699 5695 5691 5685 5678 5672 5666 5661 5655 5650 5645 5638 5629 5624 5619 5612 5604 5597 5590 5584 5578 5572 5565 5559 5552 5545 5537 5530 5523
5835 5835 5836 5836 5836 5836 5835 5835 5835 5834 5834 5833 5832 5832 5831 5830 5829 5828 5826 5825 5824 5822 5821 5819 5818 5816 5814 5812 5810 5808 5806 5803 5801 5798 5795 5792 5789 5786 5782 5779 5775 5772 5768 5764 5760 5756 5753 5749 5745 5743 5739 5734 5730 5727 5722 5718 5713 5707 5702 5697 5693 5688 5683 5676 5670 5665 5661 5655 5648 5642 5637 5630 5622 5617 5611 5604 5596 5589 5582 5576 5570 5563 5556 5550 5543 5536 5529 5522
5835 5835 5835 5835 5835 5835 5834 5834 5834 5833 5833 5832 5831 5830 5829 5828 5827 5826 5824 5823 5821 5820 5818 5817 5815 5813 5811 5810 5807 5805 5803 5800 5798 5795 5792 5789 5786 5783 5780 5776 5772 5769 5765 5762 5758 5753 5750 5746 5742 5740 5737 5733 5728 5724 5719 5714 5710 5705 5700 5696 5691 5686 5680 5674 5669 5665 5659 5653 5647 5640 5635 5629 5622 5615 5609 5602 5596 5589 5582 5575 5568 5562 5555 5548 5542 5534 5527 5520
5834 5834 5834 5834 5834 5834 5833 5833 5832 5832 5831 5830 5829 5829 5828 5826 5825 5824 5822 5821 5819 5817 5816 5814 5813 5811 5809 5807 5805 5802 5800 5798 5795 5792 5789 5787 5783 5780 5777 5774 5770 5767 5763 5759 5756 5751 5747 5744 5740 5736 5734 5730 5725 5721 5716 5711 5708 5704 5699 5693 5688 5683 5679 5674 5668 5663 5656 5650 5645 5638 5632 5627 5621 5614 5607 5600 5593 5587 5580 5573 5567 5561 5554 5547 5540 5533 5526 5519
5834 5833 5833 5833 5833 5832 5832 5831 5831 5830 5829 5828 5828 5827 5826 5824 5823 5822 5820 5819 5817 5815 5813 5812 5810 5808 5806 5804 5802 5800 5797 5795 5792 5790 5787 5784 5781 5778 5774 5771 5767 5764 5760 5757 5753 5749 5745 5741 5737 5733 5730 5728 5723 5719 5715 5711 5707 5702 5695 5690 5685 5682 5680 5674 5667 5661 5655 5648 5642 5637 5631 5625 5619 5612 5606 5600 5593 5586 5580 5573 5566 5560 5553 5545 5538 5532 5525 5518